This demonstration page uses our WeatherBlox Daily Observations layout. Learn more.

Hourly Observations for August 30, 2017

Temp ( °F °C ) Dew Point ( °F °C ) Humidity (%) Winds ( mph kmh ) Pressure ( in mb ) Visibility ( mi km ) Precip ( " mm )
12:15 am 00:15 Clear 60 15.8 56 13.5 86 86 SSE 6 9 30.06 1018 10 16.09344 0 0
12:35 am 00:35 Clear 60 15.5 56 13.3 87 87 SSE 5 7 30.06 1018 10 16.09344 0 0
12:55 am 00:55 Clear 60 15.5 56 13.4 87 87 SSE 5 7 30.06 1018 10 16.09344 0 0
1:15 am 01:15 Clear 59 15.2 56 13.1 87 87 SSE 6 9 30.06 1018 10 16.09344 0 0
1:35 am 01:35 Clear 59 15 55 13 88 88 SE 6 9 30.06 1018 10 16.09344 0 0
1:55 am 01:55 Clear 58 14.5 55 12.7 89 89 SSE 7 11 30.06 1018 10 16.09344 0 0
2:15 am 02:15 Clear 59 14.8 55 12.9 88 88 SSE 5 7 30.06 1018 10 16.09344 0 0
2:35 am 02:35 Clear 59 15 55 12.8 87 87 Calm 30.06 1018 10 16.09344 0 0
2:55 am 02:55 Clear 59 15 55 12.8 87 87 S 3 6 30.09 1019 10 16.09344 0 0
3:15 am 03:15 Clear 58 14.7 55 12.5 87 87 Calm 30.09 1019 10 16.09344 0 0
3:35 am 03:35 Clear 59 15 55 12.7 86 86 Calm 30.09 1019 10 16.09344 0 0
3:55 am 03:55 Clear 57 14.1 54 12.1 88 88 Calm 30.09 1019 10 16.09344 0 0
4:15 am 04:15 Clear 58 14.3 55 12.7 90 90 SSW 3 6 30.09 1019 10 16.09344 0 0
4:35 am 04:35 Clear 58 14.5 55 12.7 89 89 Calm 30.09 1019 10 16.09344 0 0
4:55 am 04:55 Clear 58 14.2 54 12.2 88 88 S 3 6 30.06 1018 10 16.09344 0 0
5:15 am 05:15 Clear 55 12.6 52 11.2 91 91 Calm 30.09 1019 10 16.09344 0 0
5:35 am 05:35 Clear 56 13.1 54 12.1 94 94 Calm 30.12 1020 10 16.09344 0 0
5:55 am 05:55 Clear 55 12.7 53 11.6 93 93 SE 3 6 30.09 1019 10 16.09344 0 0
6:15 am 06:15 Clear 54 12.4 53 11.4 94 94 Calm 30.12 1020 10 16.09344 0 0
6:35 am 06:35 Clear 55 13 53 11.8 92 92 Calm 30.12 1020 10 16.09344 0 0
6:55 am 06:55 Clear 56 13.6 54 12.2 91 91 S 5 7 30.12 1020 10 16.09344 0 0
7:15 am 07:15 Sunny 56 13.1 53 11.4 90 90 SSE 3 6 30.12 1020 10 16.09344 0 0
7:35 am 07:35 Sunny 55 12.7 53 11.4 92 92 Calm 30.12 1020 10 16.09344 0 0
7:55 am 07:55 Sunny 56 13.5 54 12.3 93 93 Calm 30.12 1020 10 16.09344 0 0
8:15 am 08:15 Sunny 58 14.7 56 13.2 91 91 S 3 6 30.09 1019 10 16.09344 0 0
8:35 am 08:35 Sunny 60 15.7 57 13.8 89 89 SSE 5 7 30.09 1019 10 16.09344 0 0
8:55 am 08:55 Sunny 62 16.4 57 14 86 86 S 5 7 30.09 1019 10 16.09344 0 0
9:15 am 09:15 Sunny 64 17.6 58 14.6 83 83 S 5 7 30.06 1018 10 16.09344 0 0
9:35 am 09:35 Sunny 65 18.4 57 14.1 76 76 S 6 9 30.06 1018 10 16.09344 0 0
9:55 am 09:55 Sunny 67 19.3 58 14.6 74 74 SSE 6 9 30.06 1018 10 16.09344 0 0
10:15 am 10:15 Sunny 68 20.1 59 15.2 74 74 S 5 7 30.06 1018 10 16.09344 0 0
10:35 am 10:35 Sunny 70 21.1 59 14.8 67 67 SSE 7 11 30.03 1017 10 16.09344 0 0
10:55 am 10:55 Sunny 71 21.9 56 13.6 59 59 S 9 15 30.03 1017 10 16.09344 0 0
11:15 am 11:15 Sunny 73 23 58 14.4 59 59 S 8 13 30.03 1017 10 16.09344 0 0
11:35 am 11:35 Sunny 73 23 58 14.2 58 58 SSE 8 13 30.03 1017 10 16.09344 0 0
11:55 am 11:55 Sunny 74 23.6 58 14.4 56 56 SSE 8 13 30.03 1017 10 16.09344 0 0
12:15 pm 12:15 Sunny 75 23.8 58 14.3 55 55 SE 8 13 30.03 1017 10 16.09344 0 0
12:35 pm 12:35 Sunny 76 24.5 59 14.8 55 55 SSE 8 13 30 1016 10 16.09344 0 0
12:55 pm 12:55 Sunny 76 24.5 57 13.9 52 52 SSE 8 13 30 1016 10 16.09344 0 0
1:15 pm 13:15 Sunny 76 24.7 57 13.9 51 51 SSE 8 13 30 1016 10 16.09344 0 0
1:35 pm 13:35 Sunny 78 25.3 57 14.1 50 50 SSE 8 13 30 1016 10 16.09344 0 0
1:55 pm 13:55 Sunny 78 25.6 58 14.4 50 50 SSE 9 15 30 1016 10 16.09344 0 0
2:15 pm 14:15 Sunny 78 25.8 59 14.9 51 51 SSE 8 13 30 1016 10 16.09344 0 0
2:35 pm 14:35 Sunny 79 26 58 14.6 49 49 SE 6 9 30 1016 10 16.09344 0 0
2:55 pm 14:55 Sunny 79 26.3 58 14.3 48 48 SSE 6 9 30 1016 10 16.09344 0 0
3:15 pm 15:15 Sunny 79 26.3 59 14.9 50 50 SE 6 9 30 1016 10 16.09344 0 0
3:35 pm 15:35 Sunny 80 26.4 58 14.2 47 47 S 5 7 30 1016 10 16.09344 0 0
3:55 pm 15:55 Sunny 80 26.6 59 15.2 50 50 SSE 6 9 30 1016 10 16.09344 0 0
4:15 pm 16:15 Sunny 80 26.6 58 14.6 48 48 SE 5 7 29.97 1015 10 16.09344 0 0
4:35 pm 16:35 Sunny 81 27 58 14.6 47 47 SE 6 9 29.97 1015 10 16.09344 0 0
4:55 pm 16:55 Sunny 80 26.8 58 14.2 46 46 SSE 6 9 29.97 1015 10 16.09344 0 0
5:15 pm 17:15 Sunny 80 26.6 60 15.7 51 51 ESE 5 7 29.97 1015 10 16.09344 0 0
5:35 pm 17:35 Sunny 80 26.4 61 16.2 54 54 ESE 6 9 29.97 1015 10 16.09344 0 0
5:55 pm 17:55 Sunny 79 26 61 16 54 54 ESE 7 11 29.97 1015 10 16.09344 0 0
6:15 pm 18:15 Sunny 79 25.9 61 16 54 54 ESE 6 9 29.97 1015 10 16.09344 0 0
6:35 pm 18:35 Sunny 78 25.5 61 16 56 56 E 6 9 29.97 1015 10 16.09344 0 0
6:55 pm 18:55 Sunny 77 24.8 64 17.5 64 64 E 5 7 29.97 1015 10 16.09344 0 0
7:15 pm 19:15 Sunny 76 24.2 64 17.5 66 66 ESE 5 7 29.97 1015 10 16.09344 0 0
7:35 pm 19:35 Sunny 73 23 64 17.6 72 72 E 5 7 30 1016 10 16.09344 0 0
7:55 pm 19:55 Sunny 72 22 64 17.7 77 77 E 6 9 30 1016 10 16.09344 0 0
8:15 pm 20:15 Clear 70 21.1 63 17 78 78 E 5 7 30 1016 10 16.09344 0 0
8:35 pm 20:35 Clear 68 20 63 17.1 83 83 E 5 7 30.06 1018 10 16.09344 0 0
8:55 pm 20:55 Clear 69 20.3 62 16.8 80 80 E 6 9 30.06 1018 10 16.09344 0 0
9:15 pm 21:15 Clear 65 18.5 62 16.5 88 88 E 8 13 30.06 1018 10 16.09344 0 0
9:35 pm 21:35 Clear 65 18.6 62 16.7 89 89 E 7 11 30.06 1018 10 16.09344 0 0
9:55 pm 21:55 Clear 65 18.5 62 16.6 89 89 E 8 13 30.06 1018 10 16.09344 0 0
10:15 pm 22:15 Clear 65 18.6 62 16.4 87 87 E 7 11 30.06 1018 10 16.09344 0 0
10:35 pm 22:35 Clear 65 18.2 60 15.7 85 85 ESE 5 7 30.06 1018 10 16.09344 0 0
10:55 pm 22:55 Clear 63 17.3 60 15.4 89 89 ESE 7 11 30.06 1018 10 16.09344 0 0
11:15 pm 23:15 Clear 63 17 59 15.2 89 89 ESE 6 9 30.09 1019 10 16.09344 0 0
11:35 pm 23:35 Clear 62 16.9 59 15.1 89 89 ESE 7 11 30.09 1019 10 16.09344 0 0
11:55 pm 23:55 Clear 63 17.1 60 15.3 89 89 SE 6 9 30.09 1019 10 16.09344 0 0

Powered by AerisWeather